Powrót do katalogu

CZ-6A DEB

AktywnyPO
NORAD 61142·DEBRIS·🇨🇳 China

Wystrzelony Aug 6, 2024 z Taiyuan Satellite Launch Center

Loading…

Następne Przeloty (najbliższe 24 godziny)

TLE

ŚwieżeSource: Space-Track

Epoka: Sep 13, 2026, 22:11 UTC

1 61142U 24140QL  26256.92473647  .00001032  00000-0  22180-3 0  9990
2 61142  88.8354 244.2227 0104932 310.0776  49.1267 14.54441726109331

Śledź CZ-6A DEB w czasie rzeczywistym z AllMySat

Download on the App Store